Regional Weather Roundup
Issued by NWS

Home | Current Version | Previous Version | Text Only | Print | Product List | Glossary On
Versions: 1 2 3 4 5 6 7 8 9 10 11 12 13 14 15 16 17 18 19 20 21 22 23 24 25 26 27 28 29 30 31 32 33 34 35 36 37 38 39 40 41 42 43 44 45 46 47 48 49 50
000
ASUS43 KBIS 261610
RWRND

NORTH DAKOTA REGIONAL WEATHER ROUNDUP
NATIONAL WEATHER SERVICE BISMARCK ND
1100 AM CDT THU MAY 26 2016

NOTE: "FAIR" INDICATES FEW OR NO CLOUDS BELOW 12,000 FEET WITH NO
SIGNIFICANT WEATHER AND/OR OBSTRUCTIONS TO VISIBILITY.


NDZ001>003-009>011-017-261700-
NORTHWEST NORTH DAKOTA

CITY           SKY/WX    TMP DP  RH WIND       PRES   REMARKS
WILLISTON      CLOUDY    52  48  86 S6        29.82S
MINOT          LGT RAIN  58  55  90 NE9       29.79R FOG
MINOT AFB      CLOUDY    57  54  88 E9        29.79R
$$

NDZ018>021-031>035-040>046-261700-
SOUTHWEST NORTH DAKOTA

CITY           SKY/WX    TMP DP  RH WIND       PRES   REMARKS
BISMARCK       MOSUNNY   66  50  56 VRB5      29.83S
DICKINSON      MOSUNNY   59  44  57 NW8       29.82F
GARRISON         N/A     59  52  77 W9        29.81R
HETTINGER ARPT SUNNY     64  42  44 W13       29.86F
$$

NDZ004>008-012>016-024-026-027-054-261700-
NORTHEAST NORTH DAKOTA

CITY           SKY/WX    TMP DP  RH WIND       PRES   REMARKS
GRAND FORKS    PTSUNNY   66  58  75 SW15      29.72S
GRND FRKS AFB  CLOUDY    64  57  77 W9        29.73S
DEVILS LAKE    CLOUDY    58  54  86 NW7       29.77R
$$

NDZ022-023-025-028>030-036>039-047>053-261700-
SOUTHEAST NORTH DAKOTA

CITY           SKY/WX    TMP DP  RH WIND       PRES   REMARKS
FARGO          CLOUDY    64  58  80 W9        29.77R
JAMESTOWN      PTSUNNY   61  55  81 W9        29.80R
$$




USA.gov is the U.S. government's official web portal to all federal, state and local government web resources and services.